Mobile, AL

4:40 AM CDT on June 25, 2017 (GMT -0500)
Mobile Regional

Weather History for KMOB - November, 2014

Change the Weather History Date:

Tuesday, November 18, 2014

  Actual Average Record
Temperature  
Mean Temperature 37 °F 59 °F  
Max Temperature 47 °F 70 °F 82 °F (1958)
Min Temperature 26 °F 48 °F 25 °F (1951)
Degree Days  
Heating Degree Days 28 7  
Month to date heating degree days 222 97  
Since 1 July heating degree days 262 152  
Cooling Degree Days 0 1  
Month to date cooling degree days 5 30  
Year to date cooling degree days 2301 2492  
Moisture  
Dew Point 20 °F    
Average Humidity 59    
Maximum Humidity 92    
Minimum Humidity 25    
Precipitation  
Precipitation T in 0.17 in 2.52 in (2000)
Month to date precipitation 1.31 3.10  
Year to date precipitation 67.27 59.06  
Snow  
Snow 0.00 in 0.00 in 0.00 in (2002)
Month to date snowfall 0.0 0.0  
Since 1 July snowfall 0.0 0.0  
Snow Depth 0.00 in    
Sea Level Pressure  
Sea Level Pressure 30.42 in    
Wind  
Wind Speed 8 mph (NNW)    
Max Wind Speed 23 mph    
Max Gust Speed 29 mph    
Visibility 10 miles    
Events      
T = Trace of Precipitation, MM = Missing Value Source: NWS Daily Summary

Daily Weather History Graph

Daily Weather History Graph

Search for Another Location

Airport or City:

Trip Planner

Search our weather history database for the weather conditions in past years. The results will help you decide how hot, cold, wet, or windy it might be!

Date:

Astronomy

Nov. 18, 2014 Rise Set
Actual Time 6:21 AM CST 4:54 PM CST
Civil Twilight 5:56 AM CST 5:19 PM CST
Nautical Twilight 5:26 AM CST 5:49 PM CST
Astronomical Twilight 4:58 AM CST 6:17 PM CST
Moon 2:35 AM CST (11/18) 2:34 PM CST (11/18)
Length of Visible Light 11h 23m
Length of Day
10h 32m
Waning Crescent, 15% of the Moon is Illuminated
Nov 18
Waning Crescent
Nov 22
New
Nov 29
First Quarter
Dec 6
Full
Dec 14
Last Quarter

Hourly Weather History & Observations

Time (CST) Temp. Windchill Dew Point Humidity Pressure Visibility Wind Dir Wind Speed Gust Speed Precip Events Conditions
12:56 AM 30.9 °F 25.2 °F 24.1 °F 76% 30.33 in 10.0 mi NNW 5.8 mph - N/A   Clear
1:56 AM 28.9 °F 23.9 °F 24.1 °F 82% 30.34 in 10.0 mi NW 4.6 mph - N/A   Clear
2:56 AM 28.9 °F 23.9 °F 24.1 °F 82% 30.35 in 10.0 mi NNW 4.6 mph - N/A   Clear
3:56 AM 28.0 °F 21.7 °F 24.1 °F 85% 30.36 in 10.0 mi NW 5.8 mph - N/A   Clear
4:56 AM 27.0 °F 20.5 °F 24.1 °F 89% 30.38 in 10.0 mi NW 5.8 mph - N/A   Clear
5:56 AM 28.0 °F 19.3 °F 24.1 °F 85% 30.40 in 7.0 mi NNW 9.2 mph - N/A   Mostly Cloudy
6:56 AM 28.9 °F 20.4 °F 25.0 °F 85% 30.44 in 7.0 mi NNW 9.2 mph - N/A   Scattered Clouds
7:56 AM 32.0 °F 23.6 °F 24.1 °F 73% 30.46 in 10.0 mi North 10.4 mph - N/A   Mostly Cloudy
8:56 AM 32.0 °F 21.6 °F 18.0 °F 56% 30.48 in 10.0 mi NNW 15.0 mph 24.2 mph N/A   Mostly Cloudy
9:56 AM 33.1 °F 22.6 °F 15.1 °F 48% 30.49 in 10.0 mi NNW 16.1 mph 25.3 mph N/A   Mostly Cloudy
10:56 AM 36.0 °F 26.0 °F 12.9 °F 39% 30.46 in 10.0 mi NNW 17.3 mph 24.2 mph N/A   Mostly Cloudy
11:56 AM 39.9 °F 33.4 °F 15.1 °F 36% 30.43 in 10.0 mi NNW 10.4 mph 19.6 mph N/A   Mostly Cloudy
12:56 PM 46.0 °F 39.3 °F 14.0 °F 28% 30.40 in 10.0 mi North 16.1 mph 20.7 mph N/A   Partly Cloudy
1:56 PM 46.0 °F 39.3 °F 12.0 °F 25% 30.39 in 10.0 mi NNW 16.1 mph 28.8 mph N/A   Partly Cloudy
2:56 PM 46.0 °F 39.3 °F 12.9 °F 26% 30.39 in 10.0 mi North 16.1 mph 24.2 mph N/A   Partly Cloudy
3:56 PM 45.0 °F 38.9 °F 12.9 °F 27% 30.40 in 10.0 mi North 12.7 mph 21.9 mph N/A   Partly Cloudy
4:56 PM 39.9 °F 35.8 °F 17.1 °F 40% 30.41 in 10.0 mi North 5.8 mph - N/A   Partly Cloudy
5:56 PM 36.0 °F 33.3 °F 19.9 °F 52% 30.43 in 10.0 mi North 3.5 mph - N/A   Partly Cloudy
6:56 PM 30.0 °F 26.5 °F 24.1 °F 79% 30.45 in 10.0 mi NNW 3.5 mph - N/A   Clear
7:56 PM 30.0 °F - 24.1 °F 79% 30.46 in 10.0 mi Calm Calm - 0.00 in   Clear
8:56 PM 28.9 °F - 24.1 °F 82% 30.47 in 10.0 mi Calm Calm - N/A   Clear
9:56 PM 27.0 °F - 25.0 °F 92% 30.47 in 10.0 mi Calm Calm - N/A   Clear
10:56 PM 27.0 °F - 24.1 °F 89% 30.46 in 10.0 mi Calm Calm - N/A   Clear
11:56 PM 27.0 °F - 23.0 °F 85% 30.45 in 10.0 mi Calm Calm - N/A   Clear